Location: Broletto
(44.6000°N, 10.5833°E)
Time: 06:45:53
(UTC+00:00)

Cosmos 405 Rocket - Pass Details

Date: 18 April 2021
Orbit: 489 x 553 km, 81.3° (Epoch: 05 May)

Event Time Altitude Azimuth Distance (km) Brightness Sun altitude
Rises 19:29:22 0° 354° (N) 2,730 6.9 -14.3°
Reaches altitude 10° 19:31:37 10° 360° (N) 1,825 5.9 -14.6°
Maximum altitude 19:35:32 50° 76° (ENE) 691 3.0 -15.2°
Enters shadow 19:37:15 29° 137° (SE) 1,008 3.6 -15.4°
